CAPE
0 141 0 0 0 0 0 38 25 15 13 0 0 0 0 0 0 0 0 0 0 0 7 6 3 0 0 0 0 294 414 283 292 466 334 150 333 498 461 352 387 691 724
0 5 0 0 43 42 59 71 77 79 114 54 0 0 0 0 0 0 0 0 0 2 3 45 3 3 0 0 0 332 432 403 239 427 275 256 302 416 315 181 650 637 724
0 0 49 76 116 176 151 164 213 302 386 213 10 0 0 0 0 0 0 0 0 1 9 11 72 14 2 55 8 323 492 387 306 303 360 310 399 405 176 280 513 495 607
0 0 0 71 0 145 328 600 535 719 611 344 154 19 34 23 1 0 0 0 0 1 9 14 62 68 27 121 147 248 491 381 269 287 300 324 637 431 170 695 414 591 563
0 0 0 0 102 395 732 786 508 354 382 100 0 11 52 65 54 29 5 0 3 2 15 34 91 139 62 80 288 244 453 315 260 240 338 338 540 326 126 386 449 650 426
0 0 0 0 1 194 1240 1300 959 627 174 50 0 0 27 9 59 78 74 54 25 7 14 82 186 159 146 92 324 316 371 377 319 231 335 518 403 255 271 372 268 205 281
0 0 0 0 0 0 355 758 491 461 180 122 95 91 142 58 83 71 79 85 49 29 6 4 74 203 152 139 223 421 314 522 449 504 281 205 454 193 97 29 10 93 120
0 0 0 0 0 4 266 266 124 5 2 0 0 57 52 33 7 0 12 127 125 58 10 9 0 37 215 51 109 284 430 468 464 572 600 389 227 147 25 0 0 0 158
0 0 0 0 0 0 0 0 0 0 0 0 0 0 0 0 46 38 20 134 122 123 50 2 0 0 156 75 99 190 575 429 599 647 667 366 385 147 30 0 56 5 203
0 0 0 0 0 0 0 0 0 0 0 0 0 0 7 15 54 77 67 125 135 146 50 83 6 0 46 104 47 144 523 567 672 708 624 414 209 160 121 36 24 57 310
0 0 0 0 0 0 0 0 0 6 2 0 0 2 9 11 22 57 179 124 131 114 97 69 5 0 87 236 20 132 483 307 613 543 587 367 188 104 199 115 81 158 215
0 0 0 0 0 0 0 0 5 15 5 6 5 3 8 7 12 80 92 160 103 110 59 32 37 0 86 78 65 125 24 250 620 640 418 235 198 254 244 97 79 127 223
0 0 0 0 0 0 0 0 2 19 9 5 3 2 7 7 19 158 127 105 146 117 109 18 48 0 0 36 199 139 1 347 703 630 497 160 143 245 78 56 36 51 213
0 0 0 0 0 0 0 0 16 26 21 18 8 9 12 19 74 172 135 145 70 201 164 142 50 0 1 192 232 276 6 315 896 773 643 199 176 255 90 47 74 98 93
0 0 0 0 1 4 3 8 22 17 13 21 15 18 9 48 160 41 45 74 58 82 184 100 158 35 60 291 446 353 38 251 954 960 799 186 166 105 11 8 61 63 116
0 0 0 0 2 2 2 24 12 24 50 36 33 5 21 88 124 133 79 30 64 18 64 200 192 102 134 268 501 272 111 538 734 999 854 286 37 18 35 7 67 160 153
0 0 0 0 0 0 11 53 33 27 44 42 74 70 115 98 196 207 84 44 181 199 187 308 239 305 319 390 378 278 148 678 852 909 761 337 146 24 28 99 123 160 192
0 0 0 0 0 1 14 19 34 36 112 102 93 6 66 135 184 322 185 106 60 256 294 334 175 218 343 352 277 260 252 713 938 894 694 392 113 97 63 99 36 140 189
0 0 0 0 0 0 18 65 77 149 246 206 7 3 1 157 153 300 462 375 336 369 403 333 275 226 336 276 307 262 731 901 918 819 619 419 143 8 4 8 60 173 294
0 0 0 0 2 5 18 38 249 287 285 146 16 0 0 44 145 268 482 536 435 490 523 594 254 239 377 219 200 566 861 1050 983 801 550 366 127 1 0 5 44 38 184
0 0 0 0 2 0 10 35 64 267 35 47 54 11 30 0 50 192 496 460 525 429 491 628 404 263 277 344 149 801 852 923 677 492 164 87 27 11 32 27 9 55 218
0 0 0 0 0 0 5 111 230 231 131 22 121 103 42 56 94 189 360 257 267 446 476 611 585 348 580 473 370 452 546 530 419 336 423 162 26 44 11 1 18 48 76
0 0 0 0 0 0 182 89 206 414 381 393 265 117 111 43 80 182 237 169 196 221 381 545 697 565 604 741 453 303 267 207 254 238 142 97 18 13 27 58 44 48 70
0 0 0 0 0 34 17 3 87 351 361 336 357 273 180 104 109 103 162 193 184 128 265 422 622 641 609 585 635 496 417 193 124 26 130 78 18 46 70 55 74 83 67
0 0 0 0 0 100 8 6 58 101 185 453 428 271 223 192 97 101 116 162 161 278 519 728 810 817 487 471 636 542 253 299 90 6 11 28 45 85 100 62 63 70 49
0 0 0 0 0 8 11 2 56 88 212 285 45 16 111 197 115 155 145 234 378 557 520 608 816 699 586 618 596 305 357 172 57 11 4 6 4 15 60 71 61 55 69
CIN
0 -50 0 0 0 0 0 -126 -70 -64 -36 0 0 0 0 0 0 0 0 0 0 0 -0 -0 0 0 0 0 0 -23 -29 -29 -15 -20 -28 -109 -37 -21 -18 -21 -14 -1 -2
0 -7 -0 0 -157 -138 -116 -92 -63 -39 -9 -9 0 0 0 0 0 0 0 0 0 0 -0 -68 -0 -0 -0 0 0 -9 -23 -29 -25 -12 -21 -55 -32 -14 -20 -25 -2 -4 -0
0 0 -166 -218 -157 -120 -106 -92 -78 -47 -12 -51 -0 0 -0 0 0 0 0 0 0 -0 -0 -0 -45 -0 0 -2 -7 -2 -5 -17 -18 -14 -9 -6 -1 -14 -25 -15 -1 -15 -0
0 0 0 -108 0 -123 -59 -25 -18 -1 0 -5 -9 -0 -0 -0 -0 0 0 0 0 -0 -0 -0 -95 -46 -18 -1 -0 -1 -0 -5 -23 -12 -10 -3 -1 -16 -29 -9 -9 -10 -0
0 0 0 0 -111 -42 -20 -13 -12 -12 -4 -10 0 -0 -0 -0 -0 -0 -5 0 -0 -0 -0 -43 -75 -27 -59 -15 0 -2 -0 -6 -13 -23 -5 -4 -6 -12 -33 -6 -13 -1 -2
0 0 0 0 -3 -61 -8 -0 -1 -1 -7 -0 0 0 -0 -0 -1 -1 -1 -0 -0 -1 -0 -66 -27 -22 -5 -18 -2 -0 -3 -2 -8 -8 -7 -1 -5 -24 -37 -3 -5 -6 -13
0 0 0 0 0 0 -27 -0 -0 -0 -0 -0 -0 -1 -1 -2 -0 -0 -0 -2 -0 -0 -0 -0 -119 -9 -5 -5 -3 -0 -4 -0 -0 -0 -15 -7 -1 -15 -19 -30 -56 -12 -8
0 0 0 0 0 -52 -8 -2 -5 -2 -1 0 0 -50 -36 -16 -4 0 -2 -0 -0 -0 -0 -0 0 -73 -0 -79 -17 -0 0 -4 -2 -0 0 -14 -1 -9 -28 0 -28 0 -3
0 0 0 0 0 0 0 0 0 0 0 0 0 0 0 -0 -79 -7 -0 -0 -1 -0 -0 -0 0 0 -32 -79 -28 -6 0 -6 -0 -0 0 -4 0 -3 -2 -6 -2 -3 -2
0 0 0 0 0 0 0 0 0 0 0 0 0 -0 -0 -0 -59 -43 -16 -0 -0 -0 -2 -0 -1 0 -22 -54 -80 -16 0 -0 0 -0 -0 -1 -58 0 0 -3 -2 -3 -4
0 0 0 0 0 0 0 0 0 -6 -1 -0 0 -0 -1 -0 -25 -81 -2 -3 -2 -1 -0 -2 -0 0 -14 -0 -124 -32 -0 -1 -0 -3 -0 -10 -45 -52 0 -0 -2 -2 -5
0 0 0 0 0 0 0 0 -1 -1 -1 -1 -0 -0 -0 -1 -1 -52 -23 -1 -1 -1 -0 -1 -0 0 -22 -65 -81 -39 -82 -3 -1 -4 -0 -20 -28 -5 -0 -0 -2 -3 -6
0 0 0 0 0 0 0 0 -0 -0 -5 -1 -3 -9 -1 -0 -102 -16 -12 -4 -0 -2 -0 -2 -3 0 -0 -90 -14 -36 -1 -3 -0 -1 -2 -27 -3 0 -0 -0 -12 -7 -4
0 0 0 0 0 -0 0 0 -1 -2 -1 -1 -7 -2 -0 -16 -23 -0 -2 -8 -13 -1 -1 -4 -7 0 -1 -22 -7 -10 -2 -5 -0 -0 -0 -6 -2 0 -0 -8 -3 -0 -3
0 0 0 0 -1 -1 -0 -1 -1 -1 -4 -1 -1 -0 -1 -1 -0 -6 -20 -41 -41 -12 -3 -9 -3 -2 -1 -1 -2 -8 -2 -5 -0 0 0 -7 -11 -9 -89 -25 -5 -15 -4
0 0 0 0 -1 -0 -4 -3 -5 -2 -3 -1 -1 -1 -2 -1 -1 -0 -0 -50 -43 -9 -2 -5 -3 -1 -3 -1 -1 -5 -64 -4 -0 -2 0 -2 -47 -52 -42 -63 -2 -0 -4
0 0 0 0 0 -0 -2 -105 -1 -3 -1 -2 -4 -2 -0 -3 -1 -0 -1 -30 -2 -7 -0 -2 -8 -1 -4 -5 -1 -15 -43 -1 -0 0 0 -0 -1 -40 -25 -1 -0 -0 -0
0 0 0 0 0 -0 -3 -0 -9 -1 -0 -0 -1 -37 -22 -0 -3 -0 -0 -5 -27 -5 -5 -2 -1 -1 -2 -4 -6 -10 -17 -3 -0 -0 -0 -0 -2 -0 -20 -0 -8 -4 -5
0 0 0 0 0 0 -162 -87 -45 -3 -0 -1 -18 -40 -12 -0 -1 -1 -0 -0 -0 -2 -2 -3 -4 -3 -3 -4 -4 -10 -2 -1 -0 -0 -1 -0 -0 -24 -24 -38 -7 -5 -5
0 0 0 0 -52 -61 -39 -58 -5 -1 -0 -1 -9 0 0 -0 -6 -2 -0 -0 -0 -1 -0 -1 -10 -7 -2 -3 -6 -5 -1 -0 -0 -4 -0 0 -6 -10 0 -124 -14 -11 -5
0 0 0 0 -92 0 -2 -4 -32 -1 -2 -3 -4 -1 -0 -0 -1 -0 -0 -0 -0 -2 -2 -0 -8 -4 -5 -5 -4 -2 -0 -0 0 -5 -36 -28 -40 -33 -7 -30 -27 -8 -7
0 0 0 0 0 0 -3 -13 -2 -5 -2 -7 -0 -0 -2 -0 -3 -0 -0 -1 -1 -2 -0 -1 -3 -6 -2 -3 -1 -6 0 -0 -3 -5 -1 -4 -16 -4 -46 -12 -28 -9 -6
0 0 0 0 0 0 -13 -21 -12 -1 -0 -0 -1 -1 -0 -0 -0 -0 -0 -1 -2 -1 -4 -4 -1 -1 -1 -5 -1 -5 -1 -0 -8 -2 -5 -1 -37 -12 -14 -4 -4 -6 -13
0 0 0 0 0 -65 -25 -2 -37 -0 -0 -1 -0 -0 -1 -0 -0 -1 -1 -0 -1 -5 -1 -2 -6 -1 -6 -0 -4 -4 -2 -28 -3 -53 -2 -2 -15 -11 -0 -4 -13 -14 -22
0 0 0 0 0 -39 -33 -33 -29 -5 -1 -2 -0 -5 -0 -0 -1 -0 -1 -1 -1 -4 -1 -1 -0 -2 -7 -2 -1 -1 -28 -2 -21 -96 -6 -5 -5 -5 0 -11 -10 -10 -14
0 0 0 0 0 -26 -16 -26 -26 -9 -1 -1 -9 -13 -3 -0 -4 -0 -0 -0 -0 -0 -2 -2 -0 -5 -5 -4 -9 -40 -8 -20 -26 -7 -6 -5 -7 -14 -0 -3 -2 -8 -5
Wind_Speed
13 10 7 6 7 8 10 11 12 13 13 15 16 18 20 23 25 26 26 25 23 24 26 26 25 25 26 28 29 29 28 26 25 21 20 20 14 9 5 4 3 5 5
15 11 8 7 7 8 10 10 11 12 13 15 16 17 18 22 25 28 29 28 26 25 26 27 26 25 25 26 29 29 29 26 24 21 17 14 11 9 6 3 3 3 4
16 13 11 8 8 9 10 10 12 13 14 17 18 17 19 21 26 29 30 30 29 27 26 27 28 26 25 26 27 29 28 25 24 20 17 15 11 7 6 5 2 3 2
15 15 14 8 8 9 10 12 14 15 16 19 19 19 21 24 27 28 30 30 30 28 27 27 26 27 25 25 26 27 28 25 23 22 19 18 14 7 6 4 2 2 1
15 14 14 12 11 11 12 13 14 16 19 21 23 24 25 27 29 31 30 31 30 29 28 27 27 27 26 25 26 26 28 26 23 22 26 20 14 8 6 4 4 2 3
16 17 16 14 15 13 12 12 15 18 21 23 25 26 27 29 31 33 33 30 29 29 28 27 28 28 28 26 27 26 28 27 23 23 23 21 14 10 7 4 4 3 2
19 21 21 19 19 16 15 16 18 21 23 23 24 25 27 28 29 30 31 32 29 28 28 28 29 29 29 29 28 26 27 26 25 24 23 22 15 13 9 7 6 4 2
21 20 20 19 18 19 19 20 21 23 23 23 24 25 27 29 31 30 29 29 28 27 25 28 31 30 29 28 29 28 28 28 27 25 24 20 10 13 12 10 8 8 7
18 18 18 19 19 18 18 19 22 23 23 23 24 26 27 29 29 29 29 25 24 25 27 28 32 31 29 27 28 28 28 29 28 24 21 18 13 13 12 11 11 10 7
16 18 20 18 20 22 20 19 22 24 23 24 24 23 26 26 26 26 27 27 23 22 26 26 28 30 29 28 27 28 27 28 28 24 21 19 15 8 15 12 11 10 8
19 18 17 20 23 22 20 20 22 20 20 22 18 16 18 18 20 20 20 21 22 20 22 25 27 28 28 27 27 28 26 27 26 24 23 20 15 9 11 13 12 11 10
20 20 20 20 22 21 20 19 20 20 21 21 20 15 15 19 20 20 20 17 20 19 22 23 28 29 30 29 25 27 28 25 25 23 22 17 11 8 15 12 11 9 11
20 20 22 21 20 21 20 21 19 19 20 17 17 12 11 17 17 15 17 12 15 20 22 23 26 29 30 29 25 24 27 23 24 21 18 16 15 21 15 10 10 9 13
20 21 21 20 21 20 20 21 17 19 16 12 12 11 11 13 15 16 15 11 13 20 21 24 29 25 30 27 26 29 26 22 22 20 16 19 21 7 7 10 10 8 9
18 21 21 21 21 20 20 19 19 14 10 12 11 11 9 14 14 16 16 20 14 13 22 24 26 27 26 25 28 29 26 21 21 20 16 15 11 8 8 10 9 7 8
17 20 21 21 21 20 21 17 15 11 9 9 12 12 9 7 9 12 12 14 22 17 24 25 27 24 24 27 30 25 22 20 22 19 14 13 14 9 9 12 12 9 12
16 19 20 19 19 19 18 16 15 11 10 10 12 14 7 5 7 9 12 11 16 11 24 26 28 21 25 27 27 27 21 19 22 18 12 10 12 9 9 12 11 15 18
16 18 19 20 19 19 19 16 14 12 10 10 12 12 8 14 7 9 10 16 12 13 23 25 25 23 23 28 25 25 21 19 21 17 14 10 9 9 6 20 19 21 20
15 17 18 20 18 20 17 15 14 14 11 11 12 10 8 14 13 11 12 14 14 15 21 26 24 24 25 26 25 25 15 21 21 18 15 11 10 10 7 13 11 15 16
14 15 17 18 17 20 13 14 18 15 14 14 14 10 9 15 16 15 17 19 17 16 18 22 25 24 25 23 25 16 17 19 19 17 14 11 10 8 7 8 18 15 14
13 13 16 17 17 18 14 18 24 21 17 19 17 12 9 16 19 18 19 21 20 22 20 19 22 25 27 20 21 17 17 15 14 13 12 10 10 15 7 9 11 16 11
12 13 15 16 17 18 21 22 21 20 20 21 26 23 16 16 18 20 22 24 27 16 19 21 22 21 22 19 21 19 18 16 12 13 9 11 9 13 7 8 9 7 11
10 12 14 16 18 18 19 19 20 21 16 14 16 23 21 16 19 21 24 27 24 25 19 22 21 21 21 20 19 20 20 19 13 14 9 12 11 9 6 7 11 8 8
10 11 13 15 17 18 20 19 13 15 13 15 14 16 16 19 19 21 23 24 30 29 22 24 21 20 19 18 18 17 17 14 20 17 6 10 12 9 7 9 8 7 7
9 11 12 14 16 17 20 20 22 21 20 14 15 17 21 23 20 21 26 29 29 25 20 23 20 19 19 16 16 14 14 17 15 15 11 14 15 9 10 6 8 9 11
9 10 12 14 15 15 18 19 19 16 21 22 17 18 21 22 21 22 24 23 25 25 24 23 19 16 13 15 15 17 17 21 17 15 15 17 14 7 7 6 8 10 17
Wind_Direction
15 36 39 27 16 7 360 354 350 347 344 341 339 337 335 335 332 326 319 315 311 305 294 294 294 291 284 274 269 271 269 265 267 269 272 274 289 295 321 15 17 23 47
10 19 26 18 10 1 352 346 342 339 336 335 333 330 330 329 325 319 312 309 306 302 295 289 291 289 286 278 269 268 268 263 262 264 268 274 284 286 296 342 352 36 47
2 4 5 7 1 351 343 339 336 334 332 331 329 325 323 322 319 315 309 304 300 298 293 288 285 287 285 278 271 266 266 262 259 260 260 266 272 278 273 294 341 35 43
2 358 354 6 355 343 339 336 334 333 331 329 327 322 319 317 314 310 307 302 297 293 290 286 286 283 282 279 272 266 264 262 259 255 257 259 266 252 252 265 309 259 74
2 1 358 357 350 343 338 336 334 332 329 327 323 319 315 312 309 304 303 299 295 290 286 283 282 281 279 277 271 265 262 259 258 257 252 257 258 237 232 219 141 143 114
358 354 359 358 349 341 337 333 332 330 328 324 321 317 314 310 306 301 297 295 291 285 282 280 279 276 274 272 267 263 259 257 256 255 254 255 240 226 204 199 191 156 141
349 347 350 353 348 345 341 337 334 331 328 325 323 320 317 313 309 304 296 290 284 282 279 275 272 273 273 268 263 260 257 255 253 254 254 254 234 221 217 215 218 211 173
348 351 354 358 357 354 348 343 338 334 332 329 326 322 316 311 305 303 297 289 282 278 278 272 267 268 269 267 260 256 254 251 250 251 252 252 218 222 225 229 219 217 234
356 359 2 360 355 353 352 349 343 338 334 331 328 322 316 311 305 300 295 290 282 276 274 270 263 263 265 265 257 253 251 249 248 249 250 255 234 221 216 222 213 213 193
5 4 1 0 353 349 350 352 347 340 338 336 333 329 322 316 308 302 293 285 280 275 269 267 263 260 260 259 256 250 249 246 246 247 245 248 236 205 223 201 202 182 174
359 2 5 358 353 352 350 349 347 347 346 344 348 349 342 335 325 316 302 286 275 270 268 265 261 257 255 254 253 246 247 245 244 245 248 243 233 191 170 206 174 165 157
358 1 359 360 355 354 354 353 350 350 350 346 348 355 351 337 328 319 311 298 275 265 266 264 258 253 249 247 249 245 242 244 244 244 251 240 221 200 212 196 197 171 145
4 4 1 359 360 357 356 355 355 356 353 354 353 359 1 342 336 331 313 300 281 266 263 258 256 249 243 242 244 241 239 241 243 244 249 237 233 233 187 170 183 170 137
4 4 5 4 1 1 0 357 2 0 5 7 7 6 7 352 344 336 322 306 284 263 257 253 246 249 239 242 239 235 237 239 241 243 244 234 230 202 188 197 178 161 152
7 6 7 5 4 5 4 5 5 10 19 18 15 13 16 351 353 343 329 290 284 262 249 246 244 243 240 239 234 235 235 238 237 241 240 227 220 187 180 184 224 172 167
10 7 8 8 9 10 7 11 13 21 22 22 21 16 19 37 33 11 349 309 270 259 244 239 240 242 238 232 228 233 235 238 237 238 233 218 213 190 182 194 201 196 146
12 11 11 12 15 16 17 22 21 24 24 23 16 14 25 81 72 62 3 331 274 259 238 231 233 238 228 224 226 231 238 235 235 231 218 211 205 196 171 176 188 157 146
13 11 14 13 16 17 18 25 31 33 35 32 28 20 9 190 121 74 39 285 275 251 228 228 229 228 224 221 224 230 237 233 233 222 210 198 201 215 174 146 144 145 145
16 15 15 16 21 17 26 36 45 41 49 56 50 44 143 185 165 120 112 275 258 247 231 224 225 224 220 220 221 226 232 232 230 222 213 206 208 203 203 186 158 164 156
18 20 19 23 26 20 37 49 41 53 66 66 61 92 117 178 172 153 151 154 242 242 233 227 222 220 217 220 220 227 233 230 229 218 208 204 200 198 197 212 207 211 150
20 26 24 28 31 35 51 35 17 30 62 60 62 82 128 181 179 161 150 136 221 216 222 221 218 216 221 217 219 228 226 225 220 209 193 195 199 213 168 120 148 220 153
26 30 31 35 32 38 29 30 41 37 51 58 39 55 84 119 145 153 148 146 172 227 220 217 216 216 215 217 220 215 214 217 213 204 184 173 183 198 157 141 146 173 149
33 38 40 38 36 45 44 57 51 38 59 73 71 54 67 123 128 136 146 177 203 198 216 214 217 219 217 220 214 220 212 217 197 204 180 193 191 185 161 197 206 164 188
45 47 46 43 37 49 43 56 76 65 72 71 86 78 86 96 128 132 135 142 179 193 210 208 215 221 216 216 218 223 225 205 213 208 191 194 196 194 171 196 183 158 180
54 56 54 53 45 49 47 60 41 43 53 77 80 78 73 84 99 117 148 168 194 208 216 212 218 221 218 216 215 210 202 209 212 207 180 195 198 188 205 179 139 137 135
66 65 64 62 51 56 58 63 65 81 55 41 80 98 86 86 91 110 122 204 207 208 212 213 218 215 213 207 207 203 207 214 207 205 181 184 180 192 200 210 200 213 220